Regional Weather Roundup
Issued by NWS

Home | Current Version | Previous Version | Text Only | Print | Product List | Glossary On
Versions: 1 2 3 4 5 6 7 8 9 10 11 12 13 14 15 16 17 18 19 20 21 22 23 24 25 26 27 28 29 30 31 32 33 34 35 36 37 38 39 40 41 42 43 44 45 46 47 48 49 50
000
ASUS43 KFSD 082010
RWRSD

WEATHER ROUNDUP FOR SOUTH DAKOTA
NATIONAL WEATHER SERVICE SIOUX FALLS SD
300 PM CDT SAT MAY 08 2021

NOTE: "FAIR" INDICATES FEW OR NO CLOUDS BELOW 12,000 FEET WITH NO
SIGNIFICANT WEATHER AND/OR OBSTRUCTIONS TO VISIBILITY.


SDZ001>005-009-010-012>017-082100-
NORTHWEST AND NORTH CENTRAL SOUTH DAKOTA

CITY           SKY/WX    TMP DP  RH WIND       PRES   REMARKS
BUFFALO          N/A     39  35  86 E12       29.91R
MOBRIDGE       LGT RAIN  41  37  86 E15G23    29.96R
$$

SDZ012>016-024>037-041>051-057-063-072>074-082100-
SOUTHWEST AND SOUTH CENTRAL SOUTH DAKOTA

CITY           SKY/WX    TMP DP  RH WIND       PRES   REMARKS
RAPID CTY ARPT CLOUDY    46  33  60 NE12      29.88R
PIERRE         LGT RAIN  42  39  89 E21G29    29.89F FOG
CUSTER         PTSUNNY   51  39  63 E14       29.80R
ELLSWORTH AFB  LGT RAIN  45  34  65 NE13      29.88R
PHILIP         CLOUDY    41  39  93 E14       29.88R
PINE RIDGE     CLOUDY    49  37  63 NE9       29.81R
SPEARFISH      CLOUDY    41  36  81 NW14      29.92R HAZE
WINNER         LGT RAIN  43  38  82 E24       29.84F
$$

SDZ004>011-016>023-039-040-082100-
NORTHEAST SOUTH DAKOTA

CITY           SKY/WX    TMP DP  RH WIND       PRES   REMARKS
ABERDEEN       LGT RAIN  43  38  82 E13       30.04S
WATERTOWN      CLOUDY    46  33  60 NE16G26   29.97S
BROOKINGS      CLOUDY    47  34  60 SE12      29.94F
SISSETON         N/A     52  22  30 E15G23    30.02S
$$

SDZ017-020-022-023-036>040-048>070-082100-
SOUTHEAST SOUTH DAKOTA

CITY           SKY/WX    TMP DP  RH WIND       PRES   REMARKS
SIOUX FALLS    LGT RAIN  45  39  79 E23G33    29.87F
HURON          CLOUDY    45  36  70 E10       29.95R
CHAMBERLAIN    RAIN      42  42 100 E14G20    29.91R
MITCHELL       CLOUDY    45  39  79 E15       29.90S
YANKTON        CLOUDY    46  39  76 E18G30    29.86R
$$

ABBREVIATIONS USED IN REMARKS
   TC - TEMPERATURE IN CELSIUS
  WCI - WIND CHILL INDEX
   HX - HEAT INDEX
  VSB - VISIBILITY




USA.gov is the U.S. government's official web portal to all federal, state and local government web resources and services.